DW5679 Weather Reports


Display with metric or nautical units.
time (UTC)temp
F
wind
direction
speed
MPH
gust
MPH
rain 1hr
in
rain 24hr
in
rain mn
in
humidity
%
barometer
mb
20260504223039 77 47 0.0 4.0 0.00 0.00 0.00 51 1008.8
20260504223022 77 76 0.0 4.0 0.00 0.00 0.00 52 1008.8
20260504221539 77 48 0.0 3.0 0.00 0.00 0.00 52 1008.9
20260504221517 77 117 0.0 3.0 0.00 0.00 0.00 51 1008.8
20260504220037 77 60 0.0 3.0 0.00 0.00 0.00 50 1009.2
20260504220016 78 95 0.0 3.0 0.00 0.00 0.00 50 1009.0
20260504214535 78 358 0.0 2.0 0.00 0.00 0.00 50 1009.2
20260504214510 78 40 0.0 1.0 0.00 0.00 0.00 49 1009.3
20260504213036 78 31 0.0 3.0 0.00 0.00 0.00 50 1009.5
20260504213033 78 123 0.0 3.0 0.00 0.00 0.00 52 1009.4
20260504211534 79 32 0.0 6.0 0.00 0.00 0.00 49 1009.5
20260504211532 79 67 0.0 6.0 0.00 0.00 0.00 49 1009.5
20260504210036 79 29 0.0 3.0 0.00 0.00 0.00 47 1010.0
20260504210022 79 305 0.0 3.0 0.00 0.00 0.00 48 1009.9
20260504204532 79 341 0.0 4.0 0.00 0.00 0.00 49 1010.3
20260504204521 79 28 0.0 4.0 0.00 0.00 0.00 49 1010.1
20260504203026 78 357 0.0 6.0 0.00 0.00 0.00 48 1010.4
20260504203021 78 5 0.0 6.0 0.00 0.00 0.00 47 1010.2
20260504201529 78 197 1.0 5.0 0.00 0.00 0.00 48 1010.5
20260504201523 78 167 1.0 5.0 0.00 0.00 0.00 48 1010.7
20260504200028 79 87 0.0 2.0 0.00 0.00 0.00 45 1010.8
20260504200022 79 58 0.0 2.0 0.00 0.00 0.00 46 1010.9
20260504194526 78 136 0.0 3.0 0.00 0.00 0.00 49 1011.0
20260504194521 78 112 0.0 3.0 0.00 0.00 0.00 48 1011.4
20260504193026 78 145 0.0 5.0 0.00 0.00 0.00 48 1011.2
20260504193020 78 57 0.0 5.0 0.00 0.00 0.00 49 1011.5
20260504191525 78 103 1.0 5.0 0.00 0.00 0.00 49 1011.4
20260504191518 78 71 1.0 5.0 0.00 0.00 0.00 50 1011.7
20260504190021 78 48 0.0 4.0 0.00 0.00 0.00 49 1011.5
20260504190014 78 19 0.0 4.0 0.00 0.00 0.00 50 1012.0
20260504184540 77 244 1.0 5.0 0.00 0.00 0.00 47 1011.7
20260504184512 77 213 0.0 5.0 0.00 0.00 0.00 48 1012.1
20260504183026 76 42 0.0 3.0 0.00 0.00 0.00 51 1012.0
20260504183010 76 22 0.0 3.0 0.00 0.00 0.00 51 1012.3
20260504181526 75 340 1.0 7.0 0.00 0.00 0.00 51 1012.1
20260504181507 75 300 1.0 7.0 0.00 0.00 0.00 51 1012.4
20260504180032 75 181 0.0 4.0 0.00 0.00 0.00 53 1012.3
20260504180003 75 162 0.0 3.0 0.00 0.00 0.00 53 1012.4
20260504174600 74 106 0.0 7.0 0.00 0.00 0.00 52 1012.8
20260504174522 74 79 0.0 7.0 0.00 0.00 0.00 51 1012.4
20260504173108 73 19 0.0 4.0 0.00 0.00 0.00 56 1012.9
20260504173023 73 145 0.0 4.0 0.00 0.00 0.00 55 1012.5
20260504171602 73 8 0.0 9.0 0.00 0.00 0.00 54 1013.2
20260504171526 73 74 0.0 9.0 0.00 0.00 0.00 51 1012.7
20260504081534 61 356 0.0 1.0 0.00 0.00 0.00 84 1014.2
20260504081526 61 25 0.0 1.0 0.00 0.00 0.00 84 1013.6
20260504050012 63 14 0.0 1.0 0.00 0.00 0.00 78 1014.6
20260504050007 63 344 0.0 1.0 0.00 0.00 0.00 78 1015.4
20260504044512 61 22 0.0 0.0 0.00 0.00 0.00 84 1015.4
20260504044510 61 52 0.0 0.0 0.00 0.00 0.00 84 1014.7
20260504043010 62 23 0.0 0.0 0.00 0.00 0.00 85 1015.4
20260504041508 62 22 0.0 0.0 0.00 0.00 0.00 84 1015.4
20260504041505 62 52 0.0 0.0 0.00 0.00 0.00 84 1014.7
20260504040007 62 52 0.0 0.0 0.00 0.00 0.00 81 1014.8
20260504040002 62 22 0.0 0.0 0.00 0.00 0.00 81 1015.5
20260504034520 62 52 0.0 0.0 0.00 0.00 0.00 79 1015.0
20260504034501 62 22 0.0 0.0 0.00 0.00 0.00 79 1015.7
20260504033014 63 52 0.0 0.0 0.00 0.00 0.00 79 1015.0
20260504033002 63 22 0.0 0.0 0.00 0.00 0.00 79 1015.7
20260504031512 63 53 0.0 0.0 0.00 0.00 0.00 80 1015.1
20260504031502 63 22 0.0 0.0 0.00 0.00 0.00 80 1015.8
20260504030100 64 22 0.0 0.0 0.00 0.00 0.00 78 1015.6
20260504030006 64 53 0.0 0.0 0.00 0.00 0.00 78 1015.0
20260504024600 64 22 0.0 0.0 0.00 0.00 0.00 76 1015.6
20260504024508 65 53 0.0 0.0 0.00 0.00 0.00 75 1015.0
20260504023100 65 22 0.0 0.0 0.00 0.00 0.00 77 1015.4
20260504023004 65 52 0.0 0.0 0.00 0.00 0.00 76 1014.8
20260504021600 66 22 0.0 0.0 0.00 0.00 0.00 73 1015.3
20260504021519 66 52 0.0 0.0 0.00 0.00 0.00 72 1014.8
20260504020129 67 22 0.0 0.0 0.00 0.00 0.00 71 1015.2
20260504020014 68 53 0.0 0.0 0.00 0.00 0.00 68 1014.5
20260504014601 69 23 0.0 0.0 0.00 0.00 0.00 70 1015.0
20260504014513 69 52 0.0 0.0 0.00 0.00 0.00 70 1014.5
20260504013121 70 23 0.0 0.0 0.00 0.00 0.00 59 1015.0
20260504013016 70 52 0.0 0.0 0.00 0.00 0.00 58 1014.5
20260504011556 72 22 0.0 0.0 0.00 0.00 0.00 56 1015.1
20260504011507 72 53 0.0 0.0 0.00 0.00 0.00 56 1014.5
20260504010055 74 22 0.0 0.0 0.00 0.00 0.00 53 1014.9
20260504010022 74 53 0.0 0.0 0.00 0.00 0.00 52 1014.3
20260504004553 76 22 0.0 0.0 0.00 0.00 0.00 49 1015.0
20260504004525 76 53 0.0 0.0 0.00 0.00 0.00 48 1014.3
20260504003052 77 23 0.0 0.0 0.00 0.00 0.00 47 1014.9
20260504003034 77 53 0.0 0.0 0.00 0.00 0.00 47 1014.2
20260504001554 78 22 0.0 0.0 0.00 0.00 0.00 45 1015.0
20260504001516 78 52 0.0 0.0 0.00 0.00 0.00 46 1014.3
20260504000116 78 65 0.0 1.0 0.00 0.00 0.00 45 1015.0
20260504000011 78 95 0.0 1.0 0.00 0.00 0.00 45 1014.4
20260503234510 78 27 0.0 3.0 0.00 0.00 0.00 45 1014.5
20260503234503 78 356 0.0 3.0 0.00 0.00 0.00 45 1015.1
20260503233104 78 343 0.0 2.0 0.00 0.00 0.00 45 1015.2
20260503233035 78 36 0.0 1.0 0.00 0.00 0.00 45 1014.5
20260503231522 78 360 0.0 3.0 0.00 0.00 0.00 45 1014.6
20260503231511 78 331 0.0 3.0 0.00 0.00 0.00 45 1015.2
20260503230038 78 3 0.0 2.0 0.00 0.00 0.00 47 1015.2
20260503230022 78 36 0.0 2.0 0.00 0.00 0.00 44 1014.5
20260503224620 78 55 0.0 2.0 0.00 0.00 0.00 45 1015.2
20260503224527 78 78 0.0 2.0 0.00 0.00 0.00 45 1014.4